Satellite: MET-3/5
Catalog number: 21655
Epoch time:      09006.94269682
Element set:    0653
Inclination:      082.5535 deg
RA of node:       320.4202 deg
Eccentricity:    0.0012251
Arg of perigee:   222.0200 deg
Mean anomaly:     137.9964 deg
Mean motion:   13.17017883 rev/day
Decay rate:        5.1e-07 rev/day^2
Epoch rev:           83640
Checksum:              278

Satellite: MET-2/21
Catalog number: 22782
Epoch time:      09006.91877798
Element set:    0345
Inclination:      082.5503 deg
RA of node:       309.9449 deg
Eccentricity:    0.0024080
Arg of perigee:   079.2531 deg
Mean anomaly:     281.1333 deg
Mean motion:   13.83633620 rev/day
Decay rate:        7.1e-07 rev/day^2
Epoch rev:           77530
Checksum:              308

Satellite: OKEAN-4
Catalog number: 23317
Epoch time:      09008.56066499
Element set:     795
Inclination:      082.5399 deg
RA of node:       123.4506 deg
Eccentricity:    0.0022400
Arg of perigee:   166.4496 deg
Mean anomaly:     193.7331 deg
Mean motion:   14.82666300 rev/day
Decay rate:       2.74e-06 rev/day^2
Epoch rev:           76871
Checksum:              319

Satellite: NOAA-14
Catalog number: 23455
Epoch time:      09006.66720456
Element set:    0466
Inclination:      098.9266 deg
RA of node:       084.8132 deg
Eccentricity:    0.0008552
Arg of perigee:   289.0286 deg
Mean anomaly:     070.9955 deg
Mean motion:   14.13755561 rev/day
Decay rate:       -9.8e-07 rev/day^2
Epoch rev:           72310
Checksum:              327

Satellite: NOAA-15
Catalog number: 25338
Epoch time:      09008.00438538
Element set:     766
Inclination:      098.5730 deg
RA of node:       000.8361 deg
Eccentricity:    0.0010894
Arg of perigee:   160.1839 deg
Mean anomaly:     199.9774 deg
Mean motion:   14.24741111 rev/day
Decay rate:       1.85e-06 rev/day^2
Epoch rev:           55396
Checksum:              318

Satellite: RESURS
Catalog number: 25394
Epoch time:      09008.74943908
Element set:     113
Inclination:      098.3601 deg
RA of node:       049.0500 deg
Eccentricity:    0.0001565
Arg of perigee:   353.2846 deg
Mean anomaly:     006.8312 deg
Mean motion:   14.24178317 rev/day
Decay rate:       -9.0e-08 rev/day^2
Epoch rev:           54570
Checksum:              282

Satellite: FENGYUN1
Catalog number: 25730
Epoch time:      09008.81173930
Element set:     657
Inclination:      098.7430 deg
RA of node:       343.8571 deg
Eccentricity:    0.0022691
Arg of perigee:   308.8661 deg
Mean anomaly:     051.0485 deg
Mean motion:   14.07919194 rev/day
Decay rate:        8.4e-07 rev/day^2
Epoch rev:           49789
Checksum:              326

Satellite: OKEAN-0
Catalog number: 25860
Epoch time:      09008.86904590
Element set:     569
Inclination:      097.7695 deg
RA of node:       356.5369 deg
Eccentricity:    0.0001245
Arg of perigee:   038.7719 deg
Mean anomaly:     321.3590 deg
Mean motion:   14.73552993 rev/day
Decay rate:        2.8e-07 rev/day^2
Epoch rev:           50968
Checksum:              346

Satellite: NOAA-16
Catalog number: 26536
Epoch time:      09008.06398156
Element set:     242
Inclination:      099.1726 deg
RA of node:       007.8953 deg
Eccentricity:    0.0010682
Arg of perigee:   014.9053 deg
Mean anomaly:     345.2454 deg
Mean motion:   14.12505822 rev/day
Decay rate:      -1.17e-06 rev/day^2
Epoch rev:           42769
Checksum:              302

Satellite: NOAA-17
Catalog number: 27453
Epoch time:      09006.95960001
Element set:    0253
Inclination:      098.5099 deg
RA of node:       071.4127 deg
Eccentricity:    0.0011100
Arg of perigee:   230.7468 deg
Mean anomaly:     129.2692 deg
Mean motion:   14.24030904 rev/day
Decay rate:        1.6e-07 rev/day^2
Epoch rev:           33980
Checksum:              278

Satellite: NOAA-18
Catalog number: 28654
Epoch time:      09006.68136719
Element set:    0735
Inclination:      098.8916 deg
RA of node:       311.3189 deg
Eccentricity:    0.0015198
Arg of perigee:   098.2154 deg
Mean anomaly:     262.0733 deg
Mean motion:   14.11223988 rev/day
Decay rate:       3.56e-06 rev/day^2
Epoch rev:           18717
Checksum:              335

/EX
SB KEPS @ AMSAT  $ORB09008.M
Orbital Elements  09008.MISC

HR AMSAT ORBITAL ELEMENTS FOR MANNED AND MISCELLANEOUS SATELLITES
FROM WA5QGD FORT WORTH,TX January 8, 2009
Send Subscribe/unsubscribe to KEPS at 
http://www.amsat.org/mailman/listinfo/keps
BID: ORB09008.M
TO ALL RADIO AMATEURS BT

Satellite: HUBBLE
Catalog number: 20580
Epoch time:      09006.62127251
Element set:    0313
Inclination:      028.4695 deg
RA of node:       076.3133 deg
Eccentricity:    0.0003408
Arg of perigee:   026.9989 deg
Mean anomaly:     333.0778 deg
Mean motion:   15.00444818 rev/day
Decay rate:       3.20e-06 rev/day^2
Epoch rev:           82556
Checksum:              284

Satellite: PO-34
Catalog number: 25520
Epoch time:      09006.91096258
Element set:    0162
Inclination:      028.4611 deg
RA of node:       254.7908 deg
Eccentricity:    0.0005165
Arg of perigee:   345.2726 deg
Mean anomaly:     014.7705 deg
Mean motion:   15.17280245 rev/day
Decay rate:       3.70e-06 rev/day^2
Epoch rev:           56413
Checksum:              286

